{"data":{"norad_id":65227,"epoch":"2026-05-25T03:20:22.007904Z","epoch_age_seconds":70250,"freshness":"FRESH","line1":"1 65227U 25154L   26145.13914361  .00006402  00000+0  55299-3 0  9999","line2":"2 65227  97.6708 210.3400 0004321   2.8216 357.3029 14.97566527 43884","mean_motion":14.97566527,"eccentricity":0.0004321,"inclination_deg":97.6708,"raan_deg":210.34,"arg_perigee_deg":2.8216,"mean_anomaly_deg":357.3029,"bstar":0.00055299,"rev_number":4388,"period_min":96.155995345641,"perigee_km":571.41367224083,"apogee_km":577.42207016052,"semimajor_km":6952.5548712007,"source":"CELESTRAK","updated_at":"2026-05-25T13:38:05.252208Z"}}